• In Czech Republic
  • List of Countries
  • For 7 days
  • Water Temperature
  • Satellite Maps
  • Weather Map
  • Weather Widgets
  • user-avatar
    Login

    Hourly Weather Nikolskoe

    Today, 20 August, Monday

    Time Temperature Precipitation Wind Pressure Humidity
    00:00 +9°C° 0 mm 1 mps 749 mmHg 86%
    01:00 +9°C° 0 mm 1 mps 749 mmHg 87%
    02:00 +9°C° 0 mm 1 mps 749 mmHg 88%
    03:00 +7°C° 0 mm 0 mps 749 mmHg 88%
    04:00 +7°C° 0 mm 0 mps 749 mmHg 89%
    05:00 +8°C° 0 mm 0 mps 749 mmHg 85%
    06:00 +9°C° 0 mm 0 mps 749 mmHg 82%
    07:00 +11°C° 0 mm 0 mps 749 mmHg 78%
    08:00 +13°C° 0 mm 0 mps 748 mmHg 72%
    09:00 +16°C° 0 mm 1 mps 748 mmHg 66%
    10:00 +19°C° 0 mm 1 mps 748 mmHg 59%
    11:00 +19°C° 0 mm 1 mps 748 mmHg 56%
    12:00 +20°C° 0 mm 1 mps 747 mmHg 53%
    13:00 +19°C° 0 mm 2 mps 747 mmHg 50%
    14:00 +20°C° 0 mm 2 mps 747 mmHg 51%
    15:00 +20°C° 0 mm 2 mps 747 mmHg 51%
    16:00 +20°C° 0 mm 2 mps 747 mmHg 51%
    17:00 +19°C° 0 mm 2 mps 746 mmHg 58%
    18:00 +18°C° 0 mm 1 mps 746 mmHg 64%
    19:00 +16°C° 0 mm 1 mps 746 mmHg 71%
    20:00 +15°C° 0 mm 1 mps 746 mmHg 73%
    21:00 +14°C° 0 mm 1 mps 746 mmHg 75%
    22:00 +13°C° 0 mm 2 mps 745 mmHg 78%
    23:00 +13°C° 0 mm 2 mps 745 mmHg 79%

    Tomorrow, 21 August, Tuesday

    Time Temperature Precipitation Wind Pressure Humidity
    00:00 +13°C° 0 mm 2 mps 745 mmHg 81%
    01:00 +13°C° 0 mm 2 mps 745 mmHg 83%
    02:00 +13°C° 0 mm 2 mps 745 mmHg 85%
    03:00 +13°C° 0 mm 2 mps 744 mmHg 86%
    04:00 +12°C° 0 mm 3 mps 744 mmHg 88%
    05:00 +12°C° 0 mm 3 mps 744 mmHg 88%
    06:00 +13°C° 0 mm 3 mps 744 mmHg 87%
    07:00 +13°C° 0 mm 3 mps 744 mmHg 87%
    08:00 +16°C° 0 mm 3 mps 744 mmHg 85%
    09:00 +17°C° 0 mm 3 mps 744 mmHg 82%
    10:00 +19°C° 0 mm 3 mps 744 mmHg 80%
    11:00 +19°C° 0.2 mm 3 mps 743 mmHg 81%
    12:00 +20°C° 0.2 mm 3 mps 743 mmHg 82%
    13:00 +20°C° 0.2 mm 3 mps 743 mmHg 83%
    14:00 +20°C° 0.2 mm 3 mps 743 mmHg 82%
    15:00 +21°C° 0.2 mm 3 mps 742 mmHg 81%
    16:00 +21°C° 0.2 mm 3 mps 742 mmHg 80%
    17:00 +20°C° 0.5 mm 3 mps 742 mmHg 84%
    18:00 +19°C° 0.5 mm 3 mps 742 mmHg 88%
    19:00 +19°C° 0.5 mm 2 mps 742 mmHg 92%
    20:00 +18°C° 0.1 mm 2 mps 741 mmHg 93%
    21:00 +17°C° 0.1 mm 2 mps 741 mmHg 94%
    22:00 +17°C° 0.1 mm 2 mps 741 mmHg 96%
    23:00 +17°C° 0.2 mm 2 mps 741 mmHg 96%

    Day after tomorrow, 22 August, Wednesday

    Time Temperature Precipitation Wind Pressure Humidity
    00:00 +16°C° 0.2 mm 2 mps 741 mmHg 96%
    01:00 +16°C° 0.2 mm 3 mps 741 mmHg 96%
    02:00 +16°C° 0 mm 3 mps 740 mmHg 96%
    03:00 +16°C° 0 mm 3 mps 740 mmHg 96%
    04:00 +14°C° 0 mm 3 mps 740 mmHg 96%
    05:00 +16°C° 0 mm 3 mps 740 mmHg 94%
    06:00 +15°C° 0 mm 4 mps 739 mmHg 92%
    07:00 +15°C° 0 mm 4 mps 739 mmHg 91%
    08:00 +18°C° 0 mm 4 mps 739 mmHg 85%
    09:00 +19°C° 0 mm 4 mps 739 mmHg 79%
    10:00 +20°C° 0 mm 5 mps 739 mmHg 74%
    11:00 +21°C° 0.1 mm 5 mps 739 mmHg 71%
    12:00 +22°C° 0.1 mm 6 mps 739 mmHg 69%
    13:00 +22°C° 0.1 mm 6 mps 739 mmHg 66%
    14:00 +21°C° 0.6 mm 6 mps 739 mmHg 73%
    15:00 +19°C° 0.6 mm 5 mps 739 mmHg 81%
    16:00 +17°C° 0.6 mm 5 mps 739 mmHg 88%
    17:00 +17°C° 0.5 mm 4 mps 739 mmHg 91%
    18:00 +16°C° 0.5 mm 3 mps 739 mmHg 94%
    19:00 +16°C° 0.5 mm 2 mps 739 mmHg 96%
    20:00 +15°C° 0.1 mm 2 mps 739 mmHg 97%
    21:00 +15°C° 0.1 mm 2 mps 739 mmHg 97%
    22:00 +14°C° 0.1 mm 2 mps 739 mmHg 98%
    23:00 +14°C° 0 mm 2 mps 739 mmHg 97%

    23 August, Thursday

    Time Temperature Precipitation Wind Pressure Humidity
    00:00 +14°C° 0 mm 2 mps 739 mmHg 96%
    01:00 +13°C° 0 mm 2 mps 739 mmHg 96%
    02:00 +13°C° 0 mm 2 mps 739 mmHg 96%
    03:00 +12°C° 0 mm 2 mps 740 mmHg 95%
    04:00 +10°C° 0 mm 2 mps 740 mmHg 95%
    05:00 +10°C° 0 mm 3 mps 740 mmHg 94%
    06:00 +10°C° 0 mm 4 mps 741 mmHg 93%
    07:00 +10°C° 0 mm 4 mps 741 mmHg 93%
    08:00 +11°C° 0 mm 4 mps 741 mmHg 86%
    09:00 +12°C° 0 mm 5 mps 742 mmHg 80%
    10:00 +13°C° 0 mm 5 mps 742 mmHg 74%
    11:00 +13°C° 0 mm 5 mps 742 mmHg 72%
    12:00 +13°C° 0 mm 6 mps 742 mmHg 69%
    13:00 +13°C° 0 mm 6 mps 743 mmHg 67%
    14:00 +13°C° 0 mm 6 mps 743 mmHg 68%
    15:00 +12°C° 0 mm 5 mps 743 mmHg 68%
    16:00 +12°C° 0 mm 5 mps 744 mmHg 69%
    17:00 +11°C° 0 mm 4 mps 744 mmHg 70%
    18:00 +11°C° 0 mm 4 mps 744 mmHg 72%
    19:00 +10°C° 0 mm 3 mps 745 mmHg 74%
    20:00 +10°C° 0 mm 3 mps 745 mmHg 76%
    21:00 +10°C° 0 mm 3 mps 745 mmHg 77%
    22:00 +9°C° 0 mm 3 mps 745 mmHg 79%
    23:00 +9°C° 0 mm 3 mps 745 mmHg 79%

    24 August, Friday

    Time Temperature Precipitation Wind Pressure Humidity
    00:00 +9°C° 0 mm 3 mps 745 mmHg 79%
    01:00 +9°C° 0 mm 3 mps 745 mmHg 80%
    02:00 +8°C° 0 mm 4 mps 745 mmHg 80%
    03:00 +8°C° 0 mm 4 mps 745 mmHg 80%
    04:00 +8°C° 0 mm 4 mps 745 mmHg 80%
    05:00 +8°C° 0 mm 4 mps 745 mmHg 81%
    06:00 +8°C° 0 mm 5 mps 745 mmHg 81%
    07:00 +8°C° 0 mm 5 mps 745 mmHg 82%
    08:00 +10°C° 0 mm 5 mps 745 mmHg 75%
    09:00 +11°C° 0 mm 6 mps 745 mmHg 69%
    10:00 +14°C° 0 mm 6 mps 745 mmHg 62%
    11:00 +14°C° 0 mm 6 mps 745 mmHg 61%
    12:00 +15°C° 0 mm 6 mps 745 mmHg 60%
    13:00 +15°C° 0 mm 6 mps 745 mmHg 58%
    14:00 +15°C° 0 mm 5 mps 745 mmHg 59%
    15:00 +15°C° 0 mm 5 mps 745 mmHg 60%
    16:00 +16°C° 0 mm 5 mps 745 mmHg 61%
    17:00 +15°C° 0 mm 4 mps 745 mmHg 64%
    18:00 +14°C° 0 mm 3 mps 745 mmHg 68%
    19:00 +13°C° 0 mm 3 mps 745 mmHg 72%
    20:00 +13°C° 0 mm 3 mps 745 mmHg 73%
    21:00 +12°C° 0 mm 3 mps 745 mmHg 74%
    22:00 +11°C° 0 mm 3 mps 745 mmHg 76%
    23:00 +11°C° 0 mm 3 mps 746 mmHg 77%

    25 August, Saturday

    Time Temperature Precipitation Wind Pressure Humidity
    00:00 +11°C° 0 mm 3 mps 746 mmHg 78%
    01:00 +11°C° 0 mm 3 mps 746 mmHg 79%
    02:00 +10°C° 0 mm 3 mps 746 mmHg 82%
    03:00 +9°C° 0 mm 3 mps 746 mmHg 86%
    04:00 +9°C° 0 mm 3 mps 746 mmHg 89%
    05:00 +9°C° 0 mm 3 mps 747 mmHg 88%
    06:00 +8°C° 0 mm 4 mps 747 mmHg 88%
    07:00 +10°C° 0 mm 4 mps 747 mmHg 87%
    08:00 +12°C° 0 mm 4 mps 747 mmHg 82%
    09:00 +14°C° 0 mm 4 mps 747 mmHg 77%
    10:00 +15°C° 0 mm 4 mps 747 mmHg 72%
    11:00 +18°C° 0 mm 4 mps 747 mmHg 70%
    12:00 +19°C° 0 mm 4 mps 747 mmHg 67%
    13:00 +20°C° 0 mm 4 mps 747 mmHg 64%
    14:00 +21°C° 0 mm 4 mps 747 mmHg 64%
    15:00 +21°C° 0 mm 4 mps 747 mmHg 64%
    16:00 +21°C° 0 mm 4 mps 747 mmHg 63%
    17:00 +20°C° 0 mm 4 mps 747 mmHg 69%
    18:00 +19°C° 0 mm 3 mps 747 mmHg 75%
    19:00 +17°C° 0 mm 3 mps 747 mmHg 81%
    20:00 +16°C° 0 mm 2 mps 747 mmHg 84%
    21:00 +15°C° 0 mm 2 mps 747 mmHg 88%
    22:00 +14°C° 0 mm 2 mps 747 mmHg 91%
    23:00 +13°C° 0 mm 2 mps 747 mmHg 91%
    Show more